Location: PSU-Greenbush Astrophysical Observatory
(37.5140°N, 94.9880°W)
Time: 07:33:23
(UTC-06:00)

A-11 Canister half - Visible Passes

Search period start: 23 January 2020 00:00
Search period end: 02 February 2020 00:00
Orbit: 1525 x 1684 km, 47.3° (Epoch: 22 January)

Date Brightness Start Highest point End Pass type
(mag) Time Alt. Az. Time Alt. Az. Time Alt. Az.
23 Jan 9.1 18:53:51 10° WSW 19:03:10 69° NNW 19:09:57 22° NE visible
23 Jan 9.6 21:00:26 10° WNW 21:08:15 45° NNW 21:08:15 45° NNW visible
23 Jan 11.3 23:06:23 10° WNW 23:06:34 11° WNW 23:06:34 11° WNW visible
24 Jan 9.2 18:32:11 10° WSW 18:41:30 71° NNW 18:49:35 16° NE visible
24 Jan 9.5 20:38:44 10° WNW 20:47:48 47° N 20:47:53 47° N visible
24 Jan 11.0 22:44:45 10° WNW 22:46:11 16° NW 22:46:11 16° NW visible
25 Jan 9.2 18:10:32 10° WSW 18:19:51 74° NNW 18:29:13 11° ENE visible
25 Jan 9.4 20:17:02 10° WNW 20:26:05 47° N 20:27:31 45° NNE visible
25 Jan 10.7 22:23:06 10° WNW 22:25:49 22° NW 22:25:49 22° NW visible
26 Jan 9.2 17:48:53 10° WSW 17:58:11 76° NNW 18:07:46 10° ENE visible
26 Jan 9.5 19:55:20 10° WNW 20:04:22 47° N 20:07:07 39° NE visible
26 Jan 10.4 22:01:27 10° WNW 22:05:25 28° NW 22:05:25 28° NW visible
27 Jan 9.5 19:33:38 10° WNW 19:42:39 48° N 19:46:43 32° NE visible
27 Jan 10.1 21:39:49 10° WNW 21:45:02 36° NW 21:45:02 36° NW visible
28 Jan 9.5 19:11:56 10° W 19:20:56 48° N 19:26:20 26° NE visible
28 Jan 9.7 21:18:10 10° WNW 21:24:38 44° NNW 21:24:38 44° NNW visible
29 Jan 9.5 18:50:14 10° W 18:59:13 48° N 19:05:56 20° ENE visible
29 Jan 9.4 20:56:30 10° WNW 21:04:15 51° NNW 21:04:15 51° NNW visible
29 Jan 11.1 23:01:44 10° WNW 23:02:33 13° WNW 23:02:33 13° WNW visible
30 Jan 9.5 18:28:32 10° W 18:37:31 49° N 18:45:34 14° ENE visible
30 Jan 9.2 20:34:51 10° WNW 20:43:52 54° N 20:43:52 54° N visible
30 Jan 10.8 22:40:05 10° WNW 22:42:10 19° WNW 22:42:10 19° WNW visible
31 Jan 9.5 18:06:49 10° W 18:15:48 50° N 18:25:02 10° ENE visible
31 Jan 9.2 20:13:12 10° WNW 20:22:25 53° NNE 20:23:30 51° NE visible
31 Jan 10.5 22:18:27 10° WNW 22:21:49 26° WNW 22:21:49 26° WNW visible
01 Feb 9.3 19:51:32 10° WNW 20:00:42 52° NNE 20:03:11 44° NE visible
01 Feb 10.1 21:56:49 10° WNW 22:01:29 34° WNW 22:01:29 34° WNW visible
